| time (UTC) | temp C | wind direction | speed KPH | gust KPH | rain 1hr cm | rain 24hr cm | rain mn cm | humidity % | barometer mb |
| 20260505130133 | 7 | 209 | 3.2 | 11.3 | 0.00 | 0.48 | 0.20 | 88 | 1002.1 |
| 20260505124133 | 7 | 247 | 17.7 | 19.3 | 0.00 | 0.48 | 0.20 | 95 | 1001.9 |
| 20260505123133 | 7 | 261 | 12.9 | 17.7 | 0.00 | 0.61 | 0.20 | 99 | 1001.8 |
| 20260505122133 | 7 | 202 | 0.0 | 11.3 | 0.00 | 0.61 | 0.20 | 99 | 1001.6 |
| 20260505121133 | 7 | 226 | 14.5 | 16.1 | 0.00 | 0.61 | 0.20 | 99 | 1001.5 |
| 20260505120133 | 6 | 209 | 14.5 | 14.5 | 0.00 | 0.61 | 0.20 | 99 | 1001.3 |
| 20260505115133 | 6 | 254 | 0.0 | 12.9 | 0.00 | 0.61 | 0.20 | 99 | 1001.1 |
| 20260505114133 | 6 | 279 | 4.8 | 14.5 | 0.00 | 0.61 | 0.20 | 99 | 1001.3 |
| 20260505113133 | 6 | 230 | 3.2 | 17.7 | 0.00 | 0.64 | 0.20 | 99 | 1001.1 |
| 20260505112133 | 6 | 237 | 16.1 | 20.9 | 0.05 | 0.64 | 0.20 | 99 | 1001.0 |
| 20260505111133 | 6 | 205 | 4.8 | 14.5 | 0.15 | 0.64 | 0.20 | 99 | 1000.9 |
| 20260505110133 | 6 | 185 | 3.2 | 12.9 | 0.20 | 0.64 | 0.20 | 99 | 1000.6 |
| 20260505102133 | 7 | 180 | 6.4 | 25.7 | 0.15 | 0.58 | 0.15 | 92 | 1000.0 |
| 20260505101133 | 8 | 213 | 14.5 | 19.3 | 0.05 | 0.48 | 0.05 | 83 | 999.7 |
| 20260505100133 | 10 | 264 | 6.4 | 19.3 | 0.00 | 0.43 | 0.00 | 76 | 999.1 |
| 20260505095133 | 10 | 213 | 8.0 | 20.9 | 0.00 | 0.43 | 0.00 | 78 | 998.1 |
| 20260505094133 | 11 | 217 | 9.7 | 20.9 | 0.00 | 0.43 | 0.00 | 80 | 998.0 |
| 20260505093133 | 11 | 208 | 9.7 | 16.1 | 0.00 | 0.43 | 0.00 | 75 | 997.9 |
| 20260505092133 | 11 | 187 | 12.9 | 16.1 | 0.00 | 0.43 | 0.00 | 74 | 997.9 |
| 20260505091133 | 11 | 216 | 1.6 | 14.5 | 0.00 | 0.43 | 0.00 | 79 | 998.3 |
| 20260505090133 | 11 | 180 | 6.4 | 12.9 | 0.00 | 0.43 | 0.00 | 80 | 998.2 |
| 20260505085133 | 11 | 182 | 11.3 | 16.1 | 0.00 | 0.43 | 0.00 | 82 | 998.4 |
| 20260505084133 | 11 | 181 | 12.9 | 16.1 | 0.00 | 0.43 | 0.00 | 84 | 998.7 |
| 20260505083133 | 10 | 184 | 3.2 | 9.7 | 0.00 | 0.43 | 0.00 | 86 | 999.0 |
| 20260505082133 | 10 | 205 | 3.2 | 14.5 | 0.00 | 0.43 | 0.00 | 86 | 999.2 |
| 20260505081133 | 10 | 219 | 6.4 | 11.3 | 0.00 | 0.43 | 0.00 | 88 | 999.4 |
| 20260505080133 | 10 | 230 | 6.4 | 16.1 | 0.00 | 0.43 | 0.00 | 87 | 999.4 |
| 20260505075133 | 9 | 189 | 3.2 | 16.1 | 0.00 | 0.43 | 0.00 | 89 | 999.6 |
| 20260505074133 | 9 | 168 | 6.4 | 12.9 | 0.00 | 0.43 | 0.00 | 91 | 999.6 |
| 20260505073133 | 9 | 213 | 6.4 | 11.3 | 0.00 | 0.43 | 0.00 | 95 | 999.8 |
| 20260505072133 | 8 | 233 | 8.0 | 12.9 | 0.00 | 0.43 | 0.00 | 96 | 1000.0 |
| 20260505071133 | 8 | 220 | 4.8 | 12.9 | 0.00 | 0.43 | 0.00 | 97 | 1000.2 |
| 20260505070133 | 8 | 156 | 1.6 | 17.7 | 0.00 | 0.43 | 0.00 | 95 | 1000.1 |
| 20260505065133 | 8 | 201 | 3.2 | 14.5 | 0.00 | 0.43 | 0.00 | 99 | 1000.1 |
| 20260505064133 | 8 | 184 | 6.4 | 14.5 | 0.00 | 0.43 | 0.00 | 99 | 1000.2 |
| 20260505063133 | 7 | 180 | 3.2 | 12.9 | 0.00 | 0.43 | 0.00 | 99 | 1000.5 |
| 20260505062133 | 7 | 257 | 3.2 | 8.0 | 0.00 | 0.43 | 0.00 | 99 | 1000.7 |
| 20260505061133 | 7 | 213 | 4.8 | 11.3 | 0.00 | 0.43 | 0.00 | 99 | 1000.7 |
| 20260505060133 | 7 | 213 | 3.2 | 14.5 | 0.00 | 0.43 | 0.00 | 99 | 1000.7 |
| 20260505055133 | 7 | 167 | 8.0 | 14.5 | 0.00 | 0.43 | 0.00 | 99 | 1000.7 |
| 20260505054134 | 7 | 216 | 3.2 | 11.3 | 0.00 | 0.43 | 0.00 | 99 | 1000.7 |
| 20260505053134 | 6 | 209 | 3.2 | 12.9 | 0.00 | 0.43 | 0.00 | 99 | 1000.7 |
| 20260505052134 | 6 | 226 | 12.9 | 14.5 | 0.00 | 0.43 | 0.00 | 99 | 1000.7 |
| 20260505051134 | 6 | 219 | 6.4 | 8.0 | 0.00 | 0.43 | 0.00 | 99 | 1000.6 |
| 20260505050134 | 6 | 230 | 1.6 | 11.3 | 0.00 | 0.43 | 0.00 | 99 | 1000.6 |
| 20260505041134 | 5 | 223 | 0.0 | 6.4 | 0.00 | 0.43 | 0.00 | 99 | 1000.7 |
| 20260505040134 | 5 | 185 | 3.2 | 4.8 | 0.00 | 0.43 | 0.00 | 99 | 1000.6 |
| 20260505035134 | 4 | 213 | 1.6 | 8.0 | 0.00 | 0.43 | 0.00 | 99 | 1000.6 |
| 20260505034134 | 4 | 225 | 1.6 | 8.0 | 0.00 | 0.43 | 0.00 | 99 | 1000.5 |
| 20260505033134 | 3 | 213 | 1.6 | 8.0 | 0.00 | 0.43 | 0.00 | 99 | 1000.5 |
| 20260505032134 | 3 | 177 | 3.2 | 4.8 | 0.00 | 0.43 | 0.00 | 99 | 1000.3 |
| 20260505031134 | 3 | 205 | 0.0 | 4.8 | 0.00 | 0.43 | 0.00 | 99 | 1000.3 |
| 20260505030134 | 3 | 240 | 0.0 | 3.2 | 0.00 | 0.43 | 0.00 | 99 | 1000.2 |
| 20260505025134 | 2 | 194 | 0.0 | 3.2 | 0.00 | 0.43 | 0.00 | 99 | 1000.2 |
| 20260505024134 | 2 | 223 | 0.0 | 1.6 | 0.00 | 0.43 | 0.00 | 99 | 1000.2 |
| 20260505023134 | 2 | 223 | 0.0 | 1.6 | 0.00 | 0.43 | 0.00 | 99 | 1000.3 |
| 20260505022134 | 2 | 182 | 1.6 | 3.2 | 0.00 | 0.43 | 0.00 | 99 | 1000.2 |
| 20260505021134 | 2 | 205 | 0.0 | 3.2 | 0.00 | 0.43 | 0.00 | 99 | 1000.1 |
| 20260505020134 | 2 | 223 | 0.0 | 1.6 | 0.00 | 0.43 | 0.00 | 99 | 1000.3 |
| 20260505015134 | 2 | 223 | 0.0 | 1.6 | 0.00 | 0.43 | 0.00 | 99 | 1000.2 |
| 20260505014134 | 2 | 178 | 0.0 | 0.0 | 0.00 | 0.43 | 0.00 | 99 | 1000.1 |
| 20260505013134 | 3 | 133 | 0.0 | 0.0 | 0.00 | 0.43 | 0.00 | 99 | 1000.1 |
| 20260505012134 | 3 | 178 | 0.0 | 3.2 | 0.00 | 0.43 | 0.00 | 99 | 1000.0 |
| 20260505011134 | 3 | 223 | 0.0 | 0.0 | 0.00 | 0.43 | 0.00 | 99 | 1000.0 |
| 20260505010134 | 4 | 187 | 0.0 | 1.6 | 0.00 | 0.43 | 0.00 | 99 | 999.8 |
| 20260505005134 | 4 | 223 | 1.6 | 1.6 | 0.00 | 0.43 | 0.00 | 99 | 999.9 |
| 20260505004134 | 5 | 206 | 1.6 | 6.4 | 0.00 | 0.43 | 0.00 | 99 | 999.7 |
| 20260505003134 | 5 | 178 | 0.0 | 3.2 | 0.00 | 0.43 | 0.00 | 99 | 999.7 |
| 20260505002134 | 5 | 226 | 0.0 | 4.8 | 0.00 | 0.43 | 0.00 | 99 | 999.7 |
| 20260505001134 | 5 | 216 | 3.2 | 6.4 | 0.00 | 0.43 | 0.00 | 99 | 999.7 |
| 20260505000134 | 5 | 250 | 0.0 | 6.4 | 0.00 | 0.43 | 0.00 | 99 | 999.6 |
| 20260504235134 | 6 | 192 | 3.2 | 4.8 | 0.00 | 0.43 | 0.00 | 99 | 999.5 |
| 20260504234134 | 6 | 199 | 0.0 | 4.8 | 0.00 | 0.43 | 0.00 | 99 | 999.6 |
| 20260504233134 | 6 | 255 | 3.2 | 6.4 | 0.00 | 0.43 | 0.00 | 99 | 999.6 |
| 20260504232134 | 6 | 240 | 6.4 | 8.0 | 0.00 | 0.43 | 0.00 | 99 | 999.4 |
| 20260504231134 | 6 | 217 | 3.2 | 6.4 | 0.00 | 0.43 | 0.00 | 99 | 999.4 |
| 20260504230134 | 7 | 196 | 4.8 | 6.4 | 0.00 | 0.43 | 0.00 | 99 | 999.4 |
| 20260504225134 | 7 | 213 | 3.2 | 6.4 | 0.00 | 0.43 | 0.00 | 99 | 999.4 |
| 20260504224134 | 7 | 191 | 1.6 | 8.0 | 0.00 | 0.43 | 0.00 | 99 | 999.5 |
| 20260504223134 | 7 | 236 | 4.8 | 8.0 | 0.00 | 0.43 | 0.00 | 99 | 999.4 |
| 20260504222134 | 7 | 175 | 1.6 | 6.4 | 0.00 | 0.43 | 0.00 | 99 | 999.4 |
| 20260504221134 | 7 | 226 | 4.8 | 4.8 | 0.00 | 0.43 | 0.00 | 99 | 999.3 |
| 20260504220134 | 7 | 205 | 1.6 | 4.8 | 0.00 | 0.43 | 0.00 | 99 | 999.2 |
| 20260504215134 | 7 | 216 | 0.0 | 4.8 | 0.00 | 0.43 | 0.00 | 99 | 999.3 |
| 20260504214134 | 7 | 210 | 0.0 | 4.8 | 0.00 | 0.43 | 0.00 | 99 | 999.3 |
| 20260504213134 | 7 | 172 | 1.6 | 8.0 | 0.00 | 0.43 | 0.43 | 99 | 999.2 |
| 20260504212134 | 7 | 247 | 1.6 | 11.3 | 0.00 | 0.43 | 0.43 | 99 | 999.3 |
| 20260504211134 | 7 | 248 | 0.0 | 3.2 | 0.00 | 0.43 | 0.43 | 99 | 999.3 |
| 20260504210134 | 7 | 195 | 0.0 | 4.8 | 0.00 | 0.43 | 0.43 | 99 | 999.2 |
| 20260504205134 | 7 | 239 | 9.7 | 9.7 | 0.00 | 0.43 | 0.43 | 99 | 999.3 |
| 20260504204134 | 7 | 171 | 0.0 | 8.0 | 0.00 | 0.43 | 0.43 | 99 | 999.3 |
| 20260504203134 | 7 | 195 | 1.6 | 8.0 | 0.00 | 0.43 | 0.43 | 99 | 999.2 |
| 20260504202134 | 7 | 223 | 1.6 | 12.9 | 0.00 | 0.43 | 0.43 | 99 | 999.3 |
| 20260504201134 | 7 | 181 | 1.6 | 4.8 | 0.00 | 0.43 | 0.43 | 99 | 999.1 |
| 20260504200134 | 7 | 230 | 1.6 | 6.4 | 0.00 | 0.43 | 0.43 | 99 | 999.0 |
| 20260504195135 | 7 | 241 | 1.6 | 8.0 | 0.03 | 0.43 | 0.43 | 99 | 999.0 |
| 20260504194135 | 7 | 223 | 0.0 | 1.6 | 0.03 | 0.43 | 0.43 | 99 | 999.0 |
| 20260504193135 | 7 | 237 | 0.0 | 3.2 | 0.03 | 0.43 | 0.43 | 99 | 999.0 |
| 20260504192135 | 7 | 178 | 0.0 | 4.8 | 0.03 | 0.43 | 0.43 | 99 | 999.0 |
| 20260504191135 | 7 | 174 | 0.0 | 3.2 | 0.03 | 0.43 | 0.43 | 99 | 999.1 |
| 20260504190135 | 7 | 199 | 0.0 | 4.8 | 0.03 | 0.43 | 0.43 | 99 | 999.1 |
| 20260504185135 | 7 | 209 | 1.6 | 1.6 | 0.00 | 0.41 | 0.41 | 99 | 999.2 |
| 20260504184135 | 7 | 348 | 0.0 | 0.0 | 0.00 | 0.41 | 0.41 | 99 | 999.2 |
| 20260504183135 | 7 | 348 | 0.0 | 0.0 | 0.00 | 0.41 | 0.41 | 99 | 999.3 |
| 20260504182135 | 7 | 350 | 0.0 | 0.0 | 0.00 | 0.41 | 0.41 | 99 | 999.4 |
| 20260504181135 | 7 | 345 | 0.0 | 0.0 | 0.00 | 0.41 | 0.41 | 99 | 999.6 |
| 20260504180135 | 7 | 43 | 0.0 | 0.0 | 0.00 | 0.41 | 0.41 | 99 | 999.6 |
| 20260504175135 | 7 | 334 | 0.0 | 0.0 | 0.00 | 0.41 | 0.41 | 99 | 999.7 |
| 20260504174135 | 7 | 133 | 0.0 | 1.6 | 0.00 | 0.41 | 0.41 | 99 | 999.7 |
| 20260504173135 | 7 | 156 | 0.0 | 0.0 | 0.00 | 0.41 | 0.41 | 99 | 1000.0 |
| 20260504172135 | 7 | 133 | 0.0 | 0.0 | 0.03 | 0.41 | 0.41 | 99 | 1000.1 |
| 20260504171135 | 7 | 223 | 0.0 | 0.0 | 0.03 | 0.41 | 0.41 | 99 | 1000.2 |
| 20260504170135 | 7 | 267 | 0.0 | 1.6 | 0.03 | 0.41 | 0.41 | 99 | 1000.3 |
| 20260504160135 | 7 | 71 | 0.0 | 0.0 | 0.08 | 0.38 | 0.38 | 99 | 1000.9 |
| 20260504151135 | 8 | 43 | 1.6 | 3.2 | 0.13 | 0.33 | 0.33 | 99 | 1001.9 |
| 20260504150135 | 8 | 43 | 1.6 | 3.2 | 0.10 | 0.30 | 0.30 | 99 | 1002.2 |
| 20260504141135 | 8 | 60 | 3.2 | 3.2 | 0.10 | 0.20 | 0.20 | 99 | 1003.0 |
| 20260504140135 | 8 | 43 | 1.6 | 4.8 | 0.15 | 0.20 | 0.20 | 99 | 1003.2 |